Regional Weather Roundup
Issued by NWS

Home | Current Version | Previous Version | Text Only | Print | Product List | Glossary Off
Versions: 1 2 3 4 5 6 7 8 9 10 11 12 13 14 15 16 17 18 19 20 21 22 23 24 25 26 27 28 29 30 31 32 33 34 35 36 37 38 39 40 41 42 43 44 45 46 47 48 49 50

987
ASUS43 KIND 161409
RWRIN

WEATHER ROUNDUP FOR INDIANA
NATIONAL WEATHER SERVICE INDIANAPOLIS IN
1000 AM EDT MON OCT 16 2017

NOTE: "FAIR" INDICATES FEW OR NO CLOUDS BELOW 12,000 FEET WITH NO
SIGNIFICANT WEATHER AND/OR OBSTRUCTIONS TO VISIBILITY.

* - STATION DOES NOT REPORT WEATHER SUCH AS PRECIPITATION OR FOG.

+ - STATION NOT QUALITY CONTROLLED BY THE NATIONAL WEATHER SERVICE.
    USE DATA WITH CAUTION...ESPECIALLY DEWPOINT AND RELATIVE
    HUMIDITY OBSERVATIONS.

INZ001>003-010>013-019-020-161500-
NORTHWEST INDIANA

CITY           SKY/WX    TMP DP  RH WIND       PRES   REMARKS
GARY /AIRPORT/ MOSUNNY   48  41  76 W12       30.34R
KNOX *+        SUNNY     46  43  87 W7        30.33R
LA PORTE +     SUNNY     49  44  81 W10G16    30.33R
MICHIGAN CITY+ MOSUNNY   48  45  87 SW7       30.32S
MONTICELLO +   SUNNY     47  42  80 NW7       30.34R
RENSSELAER +   SUNNY     48  39  71 W7        30.35R
VALPARAISO     SUNNY     50  41  71 W8        30.33R

$$

LMZ046-743>745-161500-
SOUTHERN LAKE MICHIGAN

STATION/POSITION TIME  TEMP    WIND        PRES    WAVE
                       AIR SEA DIR/SP/G            HT
                 (UTC) (F)     (DEG/KT/KT) (MB)    (FT)
BURNS HARBOR     1400   51     260/ 11/ 13 1027.4
MICHIGAN CITY    1340   51     250/ 20/ 21   N/A
5NW MICH CITY    1350   52 57  280/ 14/ 19   N/A     4

$$

INZ004-005-014>016-021>024-161500-
NORTH CENTRAL INDIANA

CITY           SKY/WX    TMP DP  RH WIND       PRES   REMARKS
GOSHEN         SUNNY     48  43  82 W5        30.31R
LOGANSPORT +   SUNNY     46  41  81 NW5       30.35R
PERU/GRISSOM   SUNNY     47  43  86 NW8       30.33R
SOUTH BEND     PTSUNNY   48  44  86 W7        30.32R
WARSAW +       SUNNY     46  45  93 W7        30.32R

$$

INZ006>009-017-018-025>027-161500-
NORTHEAST INDIANA

CITY           SKY/WX    TMP DP  RH WIND       PRES   REMARKS
AUBURN +       PTSUNNY   50  45  81 W5        30.31R
FORT WAYNE     MOSUNNY   50  45  83 W6        30.32R
HUNTINGTON +   SUNNY     47  45  93 W7        30.32R
KENDALLVILLE + PTSUNNY   46  46 100 W5        30.30S

$$

INZ028-029-035-036-043>045-051>053-161500-
WEST CENTRAL INDIANA

CITY           SKY/WX    TMP DP  RH WIND       PRES   REMARKS
CRAWFORDSVL +  SUNNY     45  45 100 NW5       30.36
GREENCASTLE +  SUNNY     46  41  81 CALM      30.36R
LAFAYETTE      NOT AVBL
TERRE HAUTE    SUNNY     49  41  74 NW5       30.37R

$$

INZ030>032-037>040-046>048-054>057-064-065-161500-
CENTRAL INDIANA

CITY           SKY/WX    TMP DP  RH WIND       PRES   REMARKS
ANDERSON       SUNNY     48  41  76 NW6       30.33R
CP ATTERBURY + SUNNY     50  43  76 NW6       30.36R
COLUMBUS       SUNNY     48  43  81 CALM      30.35R
FISHERS *+     SUNNY     50  45  81 NW3       30.35R
FRANKFORT +    MOSUNNY   51  43  75 NW5       30.36R
GREENWOOD *+   SUNNY     53  45  74 N5        30.35R
INDIANAPOLIS   SUNNY     50  41  71 NW9       30.35R
-EAGLE CREEK   SUNNY     50  41  71 N8        30.34R
KOKOMO +       SUNNY     48  42  80 W8        30.35R
MT COMFORT *+  SUNNY     50  45  81 NW7       30.34R
SHELBYVILLE    SUNNY     52  42  69 N8        30.33R
ZIONSVILLE +   SUNNY     48  40  74 NW8       30.35R

$$

INZ033-034-041-042-049-050-058-059-161500-
EAST CENTRAL INDIANA

CITY           SKY/WX    TMP DP  RH WIND       PRES   REMARKS
MUNCIE         SUNNY     51  43  74 NW6       30.32R
RICHMOND +     PTSUNNY   46  45  93 NW9       30.32R

$$

INZ060-061-067>069-081>083-085>088-161500-
SOUTHWEST INDIANA

CITY           SKY/WX    TMP DP  RH WIND       PRES   REMARKS
EVANSVILLE     SUNNY     51  42  71 N6        30.38R
HUNTINGBURG +  SUNNY     50  45  83 N7        30.37R
WASHINGTON +   SUNNY     50  41  72 N6        30.37R

$$

INZ062-063-066-070>080-084-089>092-161500-
SOUTH CENTRAL AND SOUTHEAST INDIANA

CITY           SKY/WX    TMP DP  RH WIND       PRES   REMARKS
BEDFORD +      SUNNY     50  43  76 N5        30.35R
BLOOMINGTON    SUNNY     50  41  71 N8        30.35R
MADISON *+     SUNNY     52  45  76 N5        30.35R
NORTH VERNON + SUNNY     50  43  76 N6        30.34R
SEYMOUR +      SUNNY     52  43  71 NW6       30.35R

$$





USA.gov is the U.S. government's official web portal to all federal, state and local government web resources and services.